Weather History for Houghton, MI

Change the Weather History Date:

Monday, July 8, 2013

  Actual Average Record
Temperature  
Mean Temperature 60 °F -  
Max Temperature 69 °F 77 °F 96 °F (1974)
Min Temperature 53 °F 56 °F 33 °F (1996)
Degree Days  
Heating Degree Days 4    
Growing Degree Days 10 (Base 50)    
Moisture  
Dew Point 57 °F    
Average Humidity 91    
Maximum Humidity 100    
Minimum Humidity 73    
Precipitation  
Precipitation 0.01 in - - ()
Sea Level Pressure  
Sea Level Pressure 29.99 in    
Wind  
Wind Speed 7 mph (East)    
Max Wind Speed 10 mph    
Max Gust Speed -    
Visibility 5 miles    
Events Fog    
Averages and records for this station are not official NWS values.
T = Trace of Precipitation, MM = Missing Value Source: NWS Daily Summary

Daily Weather History Graph

Daily Weather History Graph

Search for Another Location

Airport:

Trip Planner

Search our weather history database for the weather conditions in past years. The results will help you decide how hot, cold, wet, or windy it might be!

Date:

Astronomy

Jul. 08, 2013 Rise Set
Actual Time 6:07 AM EDT 9:50 PM EDT
Civil Twilight 5:28 AM EDT 10:29 PM EDT
Nautical Twilight 4:35 AM EDT 11:22 PM EDT
Astronomical Twilight 3:20 AM EDT 12:35 AM EDT
Moon 6:42 AM EDT (7/8) 9:44 PM EDT (7/8)
Length of Visible Light 17h 01m
Length of Day
15h 43m
Waxing Crescent, 0% of the Moon is Illuminated
Jul 8
Waxing Crescent
Jul 15
First Quarter
Jul 22
Full
Jul 29
Last Quarter
Aug 6
New

Hourly Weather History & Observations

Time (EDT) Temp. Dew Point Humidity Pressure Visibility Wind Dir Wind Speed Gust Speed Precip Events Conditions
12:53 AM 54.0 °F 53.1 °F 97% 29.98 in 0.2 mi East 10.4 mph - N/A Fog Fog
1:53 AM 53.1 °F 53.1 °F 100% 29.96 in 0.2 mi East 10.4 mph - N/A Fog Fog
2:53 AM 53.1 °F 53.1 °F 100% 29.96 in 0.2 mi East 9.2 mph - N/A Fog Fog
3:53 AM 53.1 °F 53.1 °F 100% 29.96 in 0.2 mi East 8.1 mph - 0.01 in Fog Fog
4:53 AM 54.0 °F 53.1 °F 97% 29.96 in 0.2 mi ENE 9.2 mph - N/A Fog Fog
5:24 AM 53.6 °F 53.6 °F 100% 29.96 in 0.2 mi ENE 6.9 mph - N/A Fog Fog
5:50 AM 53.6 °F 53.6 °F 100% 29.96 in 0.5 mi East 6.9 mph - N/A Fog Fog
5:53 AM 53.1 °F 53.1 °F 100% 29.96 in 0.5 mi East 8.1 mph - N/A Fog Fog
6:04 AM 53.6 °F 53.6 °F 100% 29.95 in 0.2 mi East 8.1 mph - N/A Fog Fog
6:53 AM 53.1 °F 53.1 °F 100% 29.96 in 0.2 mi ENE 9.2 mph - N/A Fog Fog
7:49 AM 53.6 °F 53.6 °F 100% 29.98 in 0.2 mi ESE 5.8 mph - N/A Fog Fog
7:53 AM 54.0 °F 54.0 °F 100% 29.99 in 0.2 mi East 5.8 mph - N/A Fog Fog
8:53 AM 55.0 °F 55.0 °F 100% 29.99 in 0.2 mi East 6.9 mph - N/A Fog Fog
9:53 AM 55.9 °F 55.9 °F 100% 29.99 in 0.2 mi East 5.8 mph - N/A Fog Fog
10:34 AM 57.2 °F 57.2 °F 100% 29.99 in 0.2 mi East 4.6 mph - N/A Fog Fog
10:53 AM 57.9 °F 57.9 °F 100% 30.00 in 0.2 mi ENE 3.5 mph - N/A Fog Fog
11:00 AM 57.2 °F 57.2 °F 100% 30.00 in 1.0 mi East 5.8 mph - N/A   Mist
11:17 AM 59.0 °F 57.2 °F 94% 29.99 in 3.0 mi Calm Calm - N/A   Overcast
11:53 AM 57.9 °F 57.0 °F 97% 30.01 in 9.0 mi SE 4.6 mph - N/A   Overcast
12:53 PM 61.0 °F 57.0 °F 87% 30.01 in 10.0 mi SSE 5.8 mph - N/A   Overcast
1:32 PM 62.6 °F 57.2 °F 82% 30.01 in 10.0 mi SE 3.5 mph - N/A   Overcast
1:53 PM 63.0 °F 59.0 °F 87% 30.02 in 10.0 mi ESE 4.6 mph - N/A   Overcast
2:17 PM 64.4 °F 59.0 °F 83% 30.01 in 10.0 mi ESE 4.6 mph - N/A   Overcast
2:53 PM 66.0 °F 59.0 °F 78% 30.01 in 10.0 mi Variable 3.5 mph - N/A   Overcast
3:53 PM 68.0 °F 60.1 °F 76% 30.01 in 10.0 mi ESE 5.8 mph - N/A   Overcast
4:39 PM 66.2 °F 59.0 °F 78% 30.00 in 10.0 mi East 8.1 mph - N/A   Scattered Clouds
4:53 PM 68.0 °F 60.1 °F 76% 30.01 in 10.0 mi Variable 5.8 mph - N/A   Partly Cloudy
5:25 PM 68.0 °F 59.0 °F 73% 30.00 in 10.0 mi SE 5.8 mph - N/A   Mostly Cloudy
5:50 PM 68.0 °F 59.0 °F 73% 30.00 in 10.0 mi ESE 4.6 mph - N/A   Scattered Clouds
5:53 PM 66.9 °F 60.1 °F 79% 30.00 in 10.0 mi Variable 3.5 mph - N/A   Scattered Clouds
6:53 PM 66.9 °F 60.1 °F 79% 30.00 in 10.0 mi ESE 3.5 mph - N/A   Clear
7:53 PM 68.0 °F 60.1 °F 76% 30.01 in 10.0 mi NW 5.8 mph - N/A   Partly Cloudy
8:53 PM 66.0 °F 60.1 °F 81% 30.00 in 10.0 mi Calm Calm - N/A   Clear
9:53 PM 63.0 °F 59.0 °F 87% 30.01 in 10.0 mi Calm Calm - N/A   Clear
10:53 PM 59.0 °F 57.0 °F 93% 30.02 in 7.0 mi Calm Calm - N/A   Clear
11:53 PM 57.9 °F 57.0 °F 97% 30.02 in 1.8 mi East 3.5 mph - N/A   Scattered Clouds
11:56 PM 57.2 °F 57.2 °F 100% 30.01 in 0.8 mi East 3.5 mph - N/A   Mist